This demonstration page uses our WeatherBlox Daily Observations layout. Learn more.

Left ArrowRight Arrow

41.55636, -103.73856

Hourly Observations for July 27, 2015

Temp ( °F °C ) Dew Point ( °F °C ) Humidity (%) Winds ( mph kmh ) Pressure ( in mb ) Visibility ( mi km ) Precip ( " mm )
12:53 am 00:53 Clear 66 18.9 60 15.6 81 81 ESE 10 17 29.8 1009 10 16.0934 0 0
1:53 am 01:53 Clear 64 17.8 60 15.6 87 87 ESE 12 19 29.79 1009 10 16.0934 0 0
2:53 am 02:53 Clear 63 17.2 60 15.6 90 90 E 10 17 29.78 1009 10 16.0934 0 0
3:53 am 03:53 Clear 62 16.7 59 15 90 90 E 9 15 29.77 1008 10 16.0934 0 0
4:53 am 04:53 Clear 61 16.1 59 15 93 93 E 6 9 29.76 1008 10 16.0934 0 0
5:53 am 05:53 Sunny 60 15.6 58 14.4 93 93 ESE 10 17 29.78 1008 9 14.48406 0 0
6:08 am 06:08 Mostly Sunny 61 16 59 15 94 94 ESE 7 11 29.8 1009 7 11.26538 0 0
6:16 am 06:16 Mostly Cloudy with Mist and Fog 60 15.6 59 15 96 96 ESE 7 11 29.8 1009 2.5 4.02335 0 0
6:19 am 06:19 Mostly Cloudy with Mist and Fog 60 15.6 59 15 96 96 ESE 10 17 29.8 1009 0.75 1.207005 0 0
6:29 am 06:29 Mostly Cloudy with Fog 60 15.6 59 15 96 96 ESE 9 15 29.77 1008 0.25 0.402335 0 0
6:43 am 06:43 Mostly Cloudy with Mist and Fog 60 15.6 59 15 96 96 SE 9 15 29.77 1008 0.75 1.207005 0 0
6:53 am 06:53 Mostly Cloudy with Mist and Fog 61 16.1 60 15.6 97 97 ESE 12 19 29.76 1008 2.5 4.02335 0 0
6:59 am 06:59 Partly Cloudy with Mist and Fog 61 16.1 60 15.6 97 97 ESE 12 19 29.77 1008 5 8.0467 0 0
7:53 am 07:53 Sunny 67 19.4 61 16.1 81 81 ESE 12 19 29.74 1007 10 16.0934 0 0
8:53 am 08:53 Sunny 71 21.7 62 16.7 73 73 E 7 11 29.72 1006 10 16.0934 0 0
9:53 am 09:53 Sunny 76 24.4 64 17.8 67 67 E 10 17 29.71 1006 10 16.0934 0 0
10:53 am 10:53 Sunny 81 27.2 65 18.3 58 58 E 10 17 29.7 1006 10 16.0934 0 0
11:53 am 11:53 Sunny 85 29.4 65 18.3 51 51 ESE 13 20 29.67 1005 10 16.0934 0 0
12:53 pm 12:53 Sunny 88 31.1 67 19.4 50 50 E 14 22 29.65 1004 10 16.0934 0 0
1:53 pm 13:53 Sunny 93 33.9 66 18.9 41 41 SE 16 26 29.61 1003 10 16.0934 0 0
2:53 pm 14:53 Sunny 94 34.4 62 16.7 35 35 SE 15 24 29.59 1002 10 16.0934 0 0
3:53 pm 15:53 Sunny 92 33.3 59 15 33 33 SE 14 22 29.57 1001 10 16.0934 0 0
4:53 pm 16:53 Sunny 94 34.4 56 13.3 28 28 SSE 16 26 29.54 1000 10 16.0934 0 0
5:31 pm 17:31 Partly Cloudy with Nearby Thunderstorms 89 31.7 58 14.4 35 35 SSE 13 20 29.35 994 10 16.0934 0 0.0254
5:49 pm 17:49 Partly Cloudy with Thunderstorms 88 31 57 14 35 35 E 7 11 29.35 994 10 16.0934 0 0.0254
5:53 pm 17:53 Partly Cloudy with Thunderstorms 86 30 59 15 40 40 VRB 3 6 29.56 1001 10 16.0934 0 0.0254
6:06 pm 18:06 Mostly Cloudy with Heavy Thunderstorms 72 22.2 64 17.8 76 76 SW 32 52 29.53 1000 1.75 2.816345 0.02 0.508
6:17 pm 18:17 Cloudy with Heavy Thunderstorms 71 21.7 64 17.8 79 79 N 20 31 29.5 999 1.5 2.41401 0.2 5.08
6:20 pm 18:20 Cloudy with Light Thunderstorms 70 21 64 18 83 83 NNE 18 30 29.5 999 2 3.21868 0 0
6:23 pm 18:23 Mostly Cloudy with Light Thunderstorms 72 22.2 64 17.8 76 76 NE 18 30 29.47 998 4 6.43736 0.22 5.588
6:37 pm 18:37 Partly Cloudy with Thunderstorms 78 25.6 60 15.6 54 54 E 10 17 29.41 996 10 16.0934 0.22 5.588
6:53 pm 18:53 Partly Cloudy with Thunderstorms 76 24.4 58 14.4 54 54 NE 13 20 29.6 1002 10 16.0934 0.22 5.588
7:14 pm 19:14 Mostly Cloudy with Heavy Thunderstorms 75 24 61 16 61 61 S 15 24 29.47 998 2.5 4.02335 0 0
7:24 pm 19:24 Mostly Cloudy with Light Thunderstorms 73 23 61 16 65 65 S 15 24 29.5 999 8 12.87472 0 0
7:33 pm 19:33 Partly Cloudy with Thunderstorms 72 22.2 61 16.1 68 68 SE 12 19 29.5 999 10 16.0934 0.09 2.286
7:44 pm 19:44 Sunny with Nearby Thunderstorms 72 22 63 17 73 73 E 7 11 29.5 999 10 16.0934 0 0
7:53 pm 19:53 Sunny 73 22.8 62 16.7 69 69 ESE 6 9 29.61 1003 10 16.0934 0.09 2.286
8:53 pm 20:53 Clear 73 22.8 64 17.8 74 74 VRB 3 6 29.6 1002 10 16.0934 0 0
9:53 pm 21:53 Clear 70 21.1 61 16.1 73 73 Calm 29.64 1004 10 16.0934 0 0
10:53 pm 22:53 Clear 69 20.6 61 16.1 76 76 NW 7 11 29.68 1005 10 16.0934 0 0
11:53 pm 23:53 Clear 68 20 52 11.1 57 57 NW 9 15 29.72 1006 10 16.0934 0 0

Powered by AerisWeather